Home > Weather > Moscow > Past weeks

Flag for USA Past Weather in Moscow, Idaho, USA — Yesterday and Last 2 Weeks

Now
71 °F

Sunny.


Feels Like: 76 °F
Forecast: 56 / 89 °F
Wind: No wind

Location: Pullman / Moscow Regional Airport

Current Time: Aug 28, 2016 at 9:00:51 PM

Latest Report: Aug 28, 2016 at 7:53 PM


Visibility: 10 mi

Pressure: 30.06 "Hg (27.46 "Hg at 781m altitude)

Humidity: 28%

Dew Point: 36 °F

Location of MoscowLocation

Past Weather in Moscow — Graph

°F

Moscow Temperature Yesterday

Maximum temperature yesterday: 84 °F (at 1:53 PM)
Minimum temperature yesterday: 56 °F (at 1:53 AM)
Average temperature yesterday: 72 °F

High & Low Weather Summary for the Past Weeks

 TemperatureHumidityPressure
High92 °F (Aug 14, 2:53 PM)71% (Aug 15, 3:53 AM)30.23 "Hg (Aug 15, 3:53 AM)
Low40 °F (Aug 23, 4:53 AM)9% (Aug 21, 5:53 PM)29.71 "Hg (Aug 21, 6:53 PM)
Average69 °F36%29.98 "Hg
* Reported Aug 13 6:53 PM — Aug 28 6:53 PM, Moscow, Weather by CustomWeather, © 2016

Note: Actual official high and low records may vary slightly from our data, if they occured in-between our weather recording intervals... More about our weather records

Advertising

Moscow Weather History for the Previous 24 Hours

Scroll right to see more
 ConditionsComfort  
Time TempWeatherWind HumidityBarometerVisibility
6:53 PM
Sun, Aug 28
79 °FSunny.No wind21%30.05 "Hg10 mi
5:53 PM80 °FSunny.No wind20%30.05 "Hg10 mi
4:53 PM81 °FSunny.No wind20%30.05 "Hg10 mi
3:53 PM80 °FSunny.3 mph21%30.05 "Hg10 mi
2:53 PM80 °FSunny.7 mph21%30.05 "Hg10 mi
1:53 PM77 °FSunny.3 mph24%30.07 "Hg10 mi
12:53 PM75 °FSunny.8 mph28%30.07 "Hg10 mi
11:53 AM75 °FSunny.12 mph30%30.07 "Hg10 mi
10:53 AM70 °FSunny.7 mph37%30.08 "Hg10 mi
9:53 AM68 °FSunny.5 mph45%30.06 "Hg10 mi
8:53 AM66 °FSunny.8 mph52%30.05 "Hg10 mi
7:53 AM63 °FHaze.5 mph60%30.04 "Hg4 mi
6:53 AM58 °FClear.No wind67%30.02 "Hg10 mi
5:53 AM56 °FClear.5 mph70%29.99 "Hg10 mi
4:53 AM56 °FClear.3 mph65%29.98 "Hg10 mi
3:53 AM59 °FClear.3 mph60%29.96 "Hg10 mi
2:53 AM61 °FClear.10 mph54%29.93 "Hg10 mi
1:53 AM61 °FClear.5 mph50%29.92 "Hg10 mi
12:53 AM64 °FClear.8 mph41%29.89 "Hg10 mi
11:53 PM
Sat, Aug 27
67 °FClear.12 mph51%29.86 "Hg10 mi
10:53 PM70 °FClear.12 mph47%29.83 "Hg10 mi
9:53 PM72 °FClear.17 mph43%29.81 "Hg10 mi
Weather by CustomWeather, © 2016

See weather overviewHow to use our weather pages